Regional Weather Roundup
Issued by NWS

Home | Current Version | Previous Version | Text Only | Print | Product List | Glossary On
Versions: 1 2 3 4 5 6 7 8 9 10 11 12 13 14 15 16 17 18 19 20 21 22 23 24 25 26 27 28 29 30 31 32 33 34 35 36 37 38 39 40 41 42 43 44 45 46 47 48 49 50
656
ASCA42 TJSJ 031510
RWRPR
PUERTO RICO/U.S. VIRGIN ISLANDS HOURLY WEATHER ROUNDUP
NATIONAL WEATHER SERVICE SAN JUAN PR
1100 AM AST SAT DEC 03 2016

PRZ001>002-007>008-010-031600-
PUERTO RICO

CITY           SKY/WX    TMP DP  RH WIND       PRES   REMARKS
SAN JUAN LMM   MOSUNNY   86  75  70 E9        29.99F HX  95
AGUADILLA      MOSUNNY   84  72  65 E6        30.03S
CEIBA          MOSUNNY   82  77  83 E10       30.02F HX  91
$$

VIZ001>002-031600-
U.S. VIRGIN ISLANDS

CITY           SKY/WX    TMP DP  RH WIND       PRES   REMARKS
CHARLOTTE AMA  CLOUDY    82  77  83 SE9       30.00F HX  91
CHRISTIANSTED  PTSUNNY   81  73  78 E10       30.01S
$$

HOURLY WEATHER ROUNDUP FOR THE NEWS MEDIA

CITY           SKY/WX    TMP DP  RH WIND       PRES   REMARKS
ORLANDO        SUNNY     68  55  63 NE10      30.18S
NEW YORK       PTSUNNY   46  24  42 NW23G31   30.04R
NEWARK         MOSUNNY   45  26  47 NW18G30   30.04R
CHICAGO        CLOUDY    32  21  64 NW9       30.33F WCI  24
HARTFORD       SUNNY     45  26  47 NW12G23   29.87R
BOSTON         MOSUNNY   42  27  55 NW18G28   29.87R
DALLAS         LGT RAIN  48  46  93 E10G17    30.09F
PHILADELPHIA   PTSUNNY   46  31  55 NW12      30.13R
LOS ANGELES    CLEAR     49  19  30 SE6       30.11S
WASHINGTON DC  MOSUNNY   45  27  49 NW18G29   30.25R



USA.gov is the U.S. government's official web portal to all federal, state and local government web resources and services.